Flag for Germany Weather past 2 weeks in Kiel, Schleswig-Holstein, Germany

Now
58 °F

Clear.


Feels Like: 58 °F
Forecast: 55 / 62 °F
Wind: 5 mph from West

Location: Kiel-Holtenau

Current Time: Sep 1, 2015 at 10:30:05 PM

Latest Report: Sep 1, 2015 at 10:00 PM


Visibility: 28 mi

Pressure: 29.83 "Hg

Humidity: 85%

Dew point: 54 °F

Location of KielLocation

Historic Weather in Kiel — Graph

°F

Kiel temperature yesterday

Maximum temperature yesterday: 78 °F (at 4:00 PM)
Minimum temperature yesterday: 63 °F (at 7:00 AM)
Average temperature yesterday: 68 °F

Past Weeks' High & Low Weather Summary

 TemperatureHumidityPressure
High78 °F (Aug 31, 4:00 PM)100% (Aug 19, 1:00 AM)30.31 "Hg (Aug 19, 1:00 AM)
Low53 °F (Aug 21, 5:00 AM)40% (Aug 22, 4:00 PM)29.60 "Hg (Aug 24, 11:00 PM)
Average64 °F79%29.99 "Hg
* Reported Aug 17 9:00 PM — Sep 1 9:00 PM, Kiel, Weather by CustomWeather, © 2015

Note: Actual official high and low records may vary slightly from our data, if they occured in-between our weather recording intervals... More about our weather records

Advertising

Kiel weather history for previous 24 hours

 ConditionsComfort  
Time TempWeatherWind HumidityBarometerVisibility
9:00 PM
Tue, Sep 1
60 °FOvercast.5 mph85%29.82 "Hg31 mi
8:00 PM61 °FOvercast.7 mph80%29.80 "Hg34 mi
7:00 PM62 °FOvercast.7 mph83%29.78 "Hg34 mi
6:00 PM62 °FOvercast.6 mph85%29.78 "Hg34 mi
5:00 PM62 °FOvercast.7 mph83%29.76 "Hg34 mi
4:00 PM63 °FLight rain. Overcast.5 mph87%29.75 "Hg25 mi
3:00 PM64 °FOvercast.6 mph81%29.75 "Hg37 mi
2:00 PM64 °FOvercast.7 mph84%29.72 "Hg34 mi
1:00 PM65 °FOvercast.7 mph79%29.72 "Hg31 mi
12:00 PM64 °FOvercast.7 mph85%29.70 "Hg31 mi
11:00 AM65 °FLow clouds.6 mph85%29.69 "Hg25 mi
10:00 AM67 °FOvercast.6 mph88%29.67 "Hg15 mi
9:00 AM67 °FOvercast.3 mph90%29.66 "Hg6 mi
8:00 AM67 °FFog.3 mph94%29.66 "Hg4 mi
7:00 AM66 °FLow clouds.2 mph97%29.67 "Hg3 mi
6:00 AM66 °FFog.5 mph96%29.68 "Hg4 mi
5:00 AM65 °FFog.3 mph97%29.68 "Hg4 mi
4:00 AM63 °FFog.2 mph98%29.68 "Hg3 mi
3:00 AM63 °FClear.2 mph99%29.67 "Hg2 mi
2:00 AM64 °FFog.1 mph99%29.68 "Hg3 mi
1:00 AM63 °FFog.1 mph99%29.70 "Hg3 mi
11:00 PM
Mon, Aug 31
66 °FOvercast.5 mph91%29.70 "Hg6 mi
10:00 PM67 °FPassing clouds.5 mph88%29.72 "Hg9 mi
Weather by CustomWeather, © 2015

See weather overviewHow to use our weather pages